Погода в Альбервиле

Франция     45°40′09″N   6°23′33″E
темп.,
°C
ветер,
м/с
пор.,
м/с
влажн.,
%
обл.,
%
осадки,
мм/ч
давл.,
гПа
погр.,
м
28 октября, чт
чт2823:00+4в22730 0.0 102417
02:00+4вюв22730 0.0 102421
05:00+3в226381 0.0 102424
08:00+3в3255100 0.0 102323
11:00+10ююв113710 0.0 1020259
14:00+13зюз223184 0.0 1018901
17:00+11з22517 0.0 101785
20:00+5в226687 0.0 101913
29 октября, пт
пт2923:00+4вюв2262100 0.0 101924
02:00+3вюв325595 0.0 101933
05:00+3вюв3252100 0.0 101736
08:00+3вюв325392 0.0 101734
11:00+9юв124069 0.0 1014239
14:00+14ю133675 0.0 10121288
17:00+11зюз1258100 0.0 101258
20:00+6вюв227199 0.0 101525
30 октября, сб
сб3023:00+4вюв3376100 0.0 101747
02:00+3вюв338063 0.0 101659
05:00+3вюв3382100 0.0 101568
08:00+3вюв4476100 0.0 101386
11:00+7юв3465100 0.0 1011249
14:00+8ююв3463100 0.1 1011422
17:00+8юв3473100 0.4 1012230
20:00+6вюв337688 0.4 101491
31 октября, вс
вс3123:00+4вюв337965 0.0 101668
02:00+5вюв3375100 0.0 101595
04:00+4вюв3381100 0.0 101661
07:00+5вюв3379100 0.0 101475
10:00+9юв2364100 0.0 1012222
13:00+12ююв2256100 0.0 1010682
16:00+9вюв337439 0.1 1010126
19:00+7вюв3381100 0.1 101187
31 октября, вс
вс3122:00+5вюв3385100 0.0 101164
01:00+6юв2282100 0.1 100951
04:00+7вюв2292100 2.4 100854
07:00+7юв2396100 12.9 100687
10:00+7сз22100100 16.7 1009158
13:00+5з1297100 26.1 1010565
16:00+4зсз2297100 2.4 1011343
19:00+3зсз119799 2.6 101487